Regional Weather Roundup
Issued by NWS

Home | Current Version | Previous Version | Text Only | Print | Product List | Glossary Off
Versions: 1 2 3 4 5 6 7 8 9 10 11 12 13 14 15 16 17 18 19 20 21 22 23 24 25 26 27 28 29 30 31 32 33 34 35 36 37 38 39 40 41 42 43 44 45 46 47 48 49 50

000
ASUS43 KLOT 282058
RWRIL

ILLINOIS REGIONAL WEATHER ROUNDUP
NATIONAL WEATHER SERVICE CHICAGO/ROMEOVILLE IL
300 PM CST FRI NOV 28 2014

NOTE: "FAIR" INDICATES FEW OR NO CLOUDS BELOW 12,000 FEET WITH NO
SIGNIFICANT WEATHER AND/OR OBSTRUCTIONS TO VISIBILITY.

* THESE STATIONS ARE NOT UNDER NWS QUALITY CONTROL. THEY ALSO MAY NOT
  REPORT WEATHER SUCH AS PRECIPITATION OR FOG.

ILZ001-002-007-009-015-016-024-282200-
NORTHWEST ILLINOIS

CITY           SKY/WX    TMP DP  RH WIND       PRES   REMARKS
MOLINE         PTSUNNY   35  27  72 SE6       29.91F WCI  30
$$

ILZ003-004-008-010-011-017-018-282200-
NORTH CENTRAL ILLINOIS

CITY           SKY/WX    TMP DP  RH WIND       PRES   REMARKS
ROCKFORD       NOT AVBL
$$

ILZ005-006-012>014-019>023-282200-
NORTHEAST ILLINOIS

CITY           SKY/WX    TMP DP  RH WIND       PRES   REMARKS
CHICAGO-OHARE  CLOUDY    30  22  72 S15       29.99F WCI  19
CHICAGO-MIDWAY NOT AVBL
AURORA         CLOUDY    32  25  75 SE14      29.99F WCI  22
WAUKEGAN       NOT AVBL
DUPAGE AIRPORT CLOUDY    31  24  75 S12       29.98F WCI  22
WHEELING       PTSUNNY   30  21  69 S16       30.01F WCI  19
NORTHERLY ISL    N/A     31  21  66 SE10        N/A  WCI  22
$$

LMZ740>746-282200-
SOUTHERN LAKE MICHIGAN

STATION/POSITION SKY/WX   TEMP    WIND        PRES    VSBY  WAVE
                          AIR SEA DIR/SP/G                  HT/PER
                          (F)     (DEG/KT/KT) (MB)    (MI)  (FT/S)
SOUTHERN BUOY              31 42  150/ 21/ 27 1018.1F         5/ 5
WAUKEGAN HARBOR            31     180/ 16/ 20   N/A
HARRISON CRIB              30     170/ 23/ 26   N/A
BURNHAM HARBOR             31     160/ 18       N/A
CALUMET HARBOR             31     160/ 13/ 17 1015.3F
MICHIGAN CITY              29     120/ 15/ 20   N/A
$$

ILZ025>027-034>036-040-047-049-050-058-095>099-282200-
WEST-CENTRAL ILLINOIS

CITY           SKY/WX    TMP DP  RH WIND       PRES   REMARKS
$$

ILZ028>032-037-038-041>044-048-051>054-059>061-282200-
CENTRAL ILLINOIS

CITY           SKY/WX    TMP DP  RH WIND       PRES   REMARKS
PEORIA         NOT AVBL
SPRINGFIELD    MOSUNNY   39  31  72 S15       29.97F WCI  31
TAYLORVILLE    NOT AVBL
$$

ILZ033-039-045-046-055>057-062-063-282200-
EAST-CENTRAL ILLINOIS

CITY           SKY/WX    TMP DP  RH WIND       PRES   REMARKS
$$

ILZ079-100>102-282200-
SOUTHWEST ILLINOIS

CITY           SKY/WX    TMP DP  RH WIND       PRES   REMARKS
CAHOKIA*       SUNNY     50  34  54 S14G20    29.98F
$$

ILZ064>066-069>071-074>076-080>082-084>086-088>090-092>094-282200-
SOUTH-CENTRAL ILLINOIS

CITY           SKY/WX    TMP DP  RH WIND       PRES   REMARKS
CARBONDALE     SUNNY     47  30  51 S20       30.07F
MARION         MOSUNNY   46  32  57 S16G25    30.08F
$$

ILZ067-068-072-073-078-083-087-091-282200-
SOUTHEAST ILLINOIS

CITY           SKY/WX    TMP DP  RH WIND       PRES   REMARKS
LAWRENCEVILLE  SUNNY     41  31  67 S22       30.11F
$$

ABBREVIATIONS USED IN REMARKS
   TC - TEMPERATURE IN CELSIUS
  WCI - WIND CHILL INDEX
   HX - HEAT INDEX
  VSB - VISIBILITY
$$



USA.gov is the U.S. government's official web portal to all federal, state and local government web resources and services.